Date String (YYYY-MM-DD hh:mm:ss) UTC,Instrument flags,Ambient pressure (hPa),Sample flow (lpm),Bypass flow (lpm),Sample temperature (°C),Ambient temperature (°C),ASC tube jacket temperature (°C),LED temperature (°C),Box temperature (°C),Sample RH (%),Span deviation,Mass concentration (μg/m³),Mass concentration (μg/m³),Mass concentration (μg/m³)
DateTimeUTC,F1_M11,P_M11,Q1_M11,Q2_M11,T1_M11,T2_M11,T3_M11,T4_M11,T5_M11,U1_M11,ZSPAN_M11,X0_M11,X2_M11,X1_M11
2021-11-18 03:00:00,,0834.1,4.99,0.00,22.4,21.7,00.0,31.5,24.1,09.8,0000.0,0017.67,0005.59,0004.02
2021-11-18 03:01:00,,0834.1,5.01,0.00,22.4,21.6,00.0,31.4,24.1,09.8,0000.0,0017.34,0005.56,0004.02
2021-11-18 03:02:00,,0834.1,4.99,0.00,22.3,21.6,00.0,31.4,24.0,09.8,0000.0,0016.90,0005.47,0004.01
2021-11-18 03:03:00,,0834.0,5.00,0.00,22.3,21.6,00.0,31.4,24.0,09.9,0000.0,0016.45,0005.44,0004.00
2021-11-18 03:04:00,,0834.1,5.01,0.00,22.3,21.5,00.0,31.4,24.0,09.9,0000.0,0015.91,0005.43,0004.00
2021-11-18 03:05:00,,0834.0,5.00,0.00,22.3,21.5,00.0,31.4,24.0,09.9,0000.0,0016.23,0005.43,0004.01
2021-11-18 03:06:00,,0834.0,4.99,0.00,22.2,21.5,00.0,31.4,24.0,09.9,0000.0,0016.68,0005.40,0004.02
2021-11-18 03:07:00,,0834.0,5.00,0.00,22.3,21.6,00.0,31.4,24.0,09.9,0000.0,0016.67,0005.40,0004.03
2021-11-18 03:08:00,,0834.1,5.01,0.00,22.3,22.1,00.0,31.4,24.1,09.8,0000.0,0017.08,0005.36,0004.02
2021-11-18 03:09:00,,0834.1,4.99,0.00,22.4,22.9,00.0,31.4,24.3,09.8,0000.0,0017.01,0005.34,0004.02
2021-11-18 03:10:00,,0834.0,5.02,0.00,22.5,23.0,00.0,31.5,24.5,09.8,0000.0,0018.06,0005.39,0004.03
2021-11-18 03:11:00,,0834.1,4.98,0.00,22.6,22.8,00.0,31.5,24.5,09.7,0000.0,0017.14,0005.42,0004.05
2021-11-18 03:12:00,,0834.1,5.01,0.00,22.6,22.6,00.0,31.5,24.4,09.7,0000.0,0017.43,0005.43,0004.04
2021-11-18 03:13:00,,0834.1,4.99,0.00,22.6,22.4,00.0,31.5,24.4,09.7,0000.0,0017.61,0005.46,0004.05
2021-11-18 03:14:00,,0834.1,5.01,0.00,22.5,22.3,00.0,31.5,24.3,09.7,0000.0,0017.34,0005.48,0004.06
2021-11-18 03:15:00,,0834.1,4.99,0.00,22.5,22.2,00.0,31.5,24.3,09.7,0000.0,0017.18,0005.46,0004.05
2021-11-18 03:16:00,,0834.1,5.01,0.00,22.5,22.1,00.0,31.5,24.3,09.7,0000.0,0016.95,0005.47,0004.05
2021-11-18 03:17:00,,0834.1,4.99,0.00,22.5,22.0,00.0,31.5,24.2,09.6,0000.0,0016.76,0005.52,0004.05
2021-11-18 03:18:00,,0834.1,5.01,0.00,22.5,21.9,00.0,31.5,24.2,09.6,0000.0,0016.69,0005.54,0004.04
2021-11-18 03:19:00,,0834.1,4.99,0.00,22.4,21.8,00.0,31.5,24.2,09.7,0000.0,0017.11,0005.54,0004.04
2021-11-18 03:20:00,,0834.1,5.00,0.00,22.4,21.8,00.0,31.5,24.2,09.7,0000.0,0018.21,0005.58,0004.04
2021-11-18 03:21:00,,0834.1,5.00,0.00,22.4,21.7,00.0,31.5,24.1,09.7,0000.0,0017.45,0005.60,0004.04
2021-11-18 03:22:00,,0834.1,5.00,0.00,22.4,21.7,00.0,31.5,24.1,09.7,0000.0,0016.97,0005.54,0004.04
2021-11-18 03:23:00,,0834.1,5.00,0.00,22.4,21.6,00.0,31.5,24.1,09.7,0000.0,0016.66,0005.50,0004.03
2021-11-18 03:24:00,,0834.1,4.99,0.00,22.3,21.6,00.0,31.4,24.0,09.7,0000.0,0016.65,0005.53,0004.03
2021-11-18 03:25:00,,0834.1,5.01,0.00,22.3,21.5,00.0,31.4,24.0,09.7,0000.0,0016.69,0005.54,0004.03
2021-11-18 03:26:00,,0834.1,4.99,0.00,22.3,21.5,00.0,31.4,24.0,09.7,0000.0,0017.14,0005.53,0004.02
2021-11-18 03:27:00,,0834.0,5.00,0.00,22.3,21.5,00.0,31.4,24.0,09.7,0000.0,0017.13,0005.47,0004.00
2021-11-18 03:28:00,,0834.0,5.00,0.00,22.3,21.4,00.0,31.4,23.9,09.7,0000.0,0017.07,0005.39,0003.99
2021-11-18 03:29:00,,0834.1,5.01,0.00,22.2,21.6,00.0,31.4,24.0,09.7,0000.0,0015.83,0005.33,0003.99
2021-11-18 03:30:00,,0834.1,4.99,0.00,22.3,22.3,00.0,31.4,24.2,09.7,0000.0,0015.48,0005.31,0003.97
2021-11-18 03:31:00,,0834.1,5.02,0.00,22.5,23.0,00.0,31.5,24.4,09.7,0000.0,0014.61,0005.31,0003.97
2021-11-18 03:32:00,,0834.1,4.98,0.00,22.5,23.0,00.0,31.5,24.5,09.7,0000.0,0014.16,0005.25,0003.96
2021-11-18 03:33:00,,0834.1,5.00,0.00,22.5,22.8,00.0,31.5,24.4,09.7,0000.0,0014.60,0005.22,0003.96
2021-11-18 03:34:00,,0834.1,5.00,0.00,22.5,22.5,00.0,31.5,24.4,09.7,0000.0,0014.55,0005.22,0003.96
2021-11-18 03:35:00,,0834.0,5.01,0.00,22.5,22.3,00.0,31.5,24.3,09.6,0000.0,0015.10,0005.19,0003.96
2021-11-18 03:36:00,,0834.1,5.00,0.00,22.5,22.2,00.0,31.5,24.3,09.6,0000.0,0015.15,0005.15,0003.95
2021-11-18 03:37:00,,0834.0,4.99,0.00,22.5,22.1,00.0,31.5,24.2,09.6,0000.0,0014.86,0005.11,0003.95
2021-11-18 03:38:00,,0834.1,5.02,0.00,22.4,21.9,00.0,31.5,24.2,09.7,0000.0,0014.95,0005.12,0003.95
2021-11-18 03:39:00,,0834.1,5.00,0.00,22.4,21.8,00.0,31.5,24.1,09.7,0000.0,0014.79,0005.15,0003.95
2021-11-18 03:40:00,,0834.1,5.01,0.00,22.4,21.8,00.0,31.5,24.1,09.7,0000.0,0016.37,0005.18,0003.95
2021-11-18 03:41:00,,0834.1,4.99,0.00,22.4,21.7,00.0,31.5,24.1,09.7,0000.0,0017.11,0005.25,0003.95
2021-11-18 03:42:00,,0834.1,4.99,0.00,22.3,21.6,00.0,31.4,24.0,09.7,0000.0,0017.04,0005.27,0003.98
2021-11-18 03:43:00,,0834.1,5.01,0.00,22.3,21.6,00.0,31.4,23.9,09.7,0000.0,0017.38,0005.29,0003.98
2021-11-18 03:44:00,,0834.1,4.99,0.00,22.3,21.5,00.0,31.4,23.9,09.8,0000.0,0017.22,0005.28,0003.99
2021-11-18 03:45:00,,0834.1,5.01,0.00,22.3,21.4,00.0,31.4,23.9,09.8,0000.0,0017.87,0005.29,0004.00
2021-11-18 03:46:00,,0834.0,4.99,0.00,22.3,21.4,00.0,31.4,23.9,09.8,0000.0,0018.14,0005.29,0004.00
2021-11-18 03:47:00,,0834.0,5.00,0.00,22.2,21.4,00.0,31.4,23.9,09.8,0000.0,0017.74,0005.30,0004.02
2021-11-18 03:48:00,,0834.1,5.01,0.00,22.2,21.4,00.0,31.4,23.9,09.8,0000.0,0017.48,0005.33,0004.03
2021-11-18 03:49:00,,0834.1,5.00,0.00,22.2,21.7,00.0,31.4,23.9,09.8,0000.0,0017.79,0005.39,0004.05
2021-11-18 03:50:00,,0834.1,4.99,0.00,22.3,22.4,00.0,31.4,24.1,09.7,0000.5,0017.78,0005.39,0004.06
2021-11-18 03:51:00,,0834.1,5.00,0.00,22.4,23.1,00.0,31.4,24.4,09.7,0000.7,0016.28,0005.36,0004.07
2021-11-18 03:52:00,,0834.1,5.00,0.00,22.5,23.3,00.0,31.5,24.5,09.6,0000.2,0015.79,0005.29,0004.09
2021-11-18 03:53:00,,0834.1,5.02,0.00,22.6,23.0,00.0,31.5,24.5,09.6,0000.0,0015.55,0005.23,0004.07
2021-11-18 03:54:00,,0834.1,4.99,0.00,22.6,22.8,00.0,31.5,24.4,09.6,0000.0,0016.09,0005.25,0004.07
2021-11-18 03:55:00,,0834.1,5.01,0.00,22.6,22.5,00.0,31.5,24.3,09.6,0000.0,0016.17,0005.26,0004.07
2021-11-18 03:56:00,,0834.1,5.00,0.00,22.5,22.3,00.0,31.5,24.3,09.6,0000.0,0016.08,0005.31,0004.07
2021-11-18 03:57:00,,0834.1,4.99,0.00,22.5,22.1,00.0,31.5,24.2,09.6,0000.0,0015.26,0005.35,0004.08
2021-11-18 03:58:00,,0834.0,5.01,0.00,22.5,22.0,00.0,31.5,24.2,09.6,0000.0,0015.65,0005.31,0004.08
2021-11-18 03:59:00,,0834.1,5.00,0.00,22.4,21.9,00.0,31.5,24.2,09.6,0000.0,0015.67,0005.31,0004.07
